Location: Armstrong
(40.9123°N, 82.0110°W)
Time: 08:37:32
(UTC+00:00)

Cosmos 2058 Rocket - Pass Details

Date: 29 October 2020
Orbit: 610 x 640 km, 82.5° (Epoch: 30 November)

Event Time Altitude Azimuth Distance (km) Brightness Sun altitude
Rises 23:07:11 0° 181° (S) 2,913 6.7 -8.2°
Reaches altitude 10° 23:09:25 10° 179° (S) 2,013 5.8 -8.6°
Maximum altitude 23:13:52 73° 95° (E) 671 3.1 -9.4°
Drops below altitude 10° 23:18:23 10° 12° (NNE) 2,039 5.5 -10.3°
Sets 23:20:38 0° 10° (N) 2,953 6.3 -10.7°
